Year,Month,Day,Hour,Minute,Value (Times are PST for temperature in C)
2018,10,06,00,00,6.00
2018,10,06,00,01,5.90
2018,10,06,00,02,5.90
2018,10,06,00,03,5.90
2018,10,06,00,04,5.80
2018,10,06,00,05,5.80
2018,10,06,00,06,5.80
2018,10,06,00,07,5.70
2018,10,06,00,08,5.70
2018,10,06,00,09,5.70
2018,10,06,00,10,5.70
2018,10,06,00,11,5.70
2018,10,06,00,12,5.60
2018,10,06,00,13,5.60
2018,10,06,00,14,5.60
2018,10,06,00,15,5.60
2018,10,06,00,16,5.60
2018,10,06,00,17,5.60
2018,10,06,00,18,5.60
2018,10,06,00,19,5.60
2018,10,06,00,20,5.50
2018,10,06,00,21,5.50
2018,10,06,00,22,5.40
2018,10,06,00,23,5.40
2018,10,06,00,24,5.40
2018,10,06,00,25,5.30
2018,10,06,00,26,5.30
2018,10,06,00,27,5.30
2018,10,06,00,28,5.30
2018,10,06,00,29,5.30
2018,10,06,00,30,5.30
2018,10,06,00,31,5.30
2018,10,06,00,32,5.30
2018,10,06,00,33,5.30
2018,10,06,00,34,5.20
2018,10,06,00,35,5.20
2018,10,06,00,36,5.20
2018,10,06,00,37,5.20
2018,10,06,00,38,5.10
2018,10,06,00,39,5.10
2018,10,06,00,40,5.10
2018,10,06,00,41,5.10
2018,10,06,00,42,5.10
2018,10,06,00,43,5.10
2018,10,06,00,44,5.10
2018,10,06,00,45,5.10
2018,10,06,00,46,5.10
2018,10,06,00,47,5.10
2018,10,06,00,48,5.10
2018,10,06,00,49,5.10
2018,10,06,00,50,5.10
2018,10,06,00,51,5.10
2018,10,06,00,52,5.10
2018,10,06,00,53,5.10
2018,10,06,00,54,5.00
2018,10,06,00,55,5.00
2018,10,06,00,56,5.00
2018,10,06,00,57,4.90
2018,10,06,00,58,4.90
2018,10,06,00,59,4.90
2018,10,06,01,00,4.80
2018,10,06,01,01,4.80
2018,10,06,01,02,4.80
2018,10,06,01,03,4.80
2018,10,06,01,04,4.80
2018,10,06,01,05,4.80
2018,10,06,01,06,4.80
2018,10,06,01,07,4.80
2018,10,06,01,08,4.80
2018,10,06,01,09,4.80
2018,10,06,01,10,4.90
2018,10,06,01,11,4.80
2018,10,06,01,12,4.80
2018,10,06,01,13,4.80
2018,10,06,01,14,4.80
2018,10,06,01,15,4.80
2018,10,06,01,16,4.80
2018,10,06,01,17,4.80
2018,10,06,01,18,4.80
2018,10,06,01,19,4.80
2018,10,06,01,20,4.80
2018,10,06,01,21,4.80
2018,10,06,01,22,4.80
2018,10,06,01,23,4.80
2018,10,06,01,24,4.80
2018,10,06,01,25,4.80
2018,10,06,01,26,4.80
2018,10,06,01,27,4.80
2018,10,06,01,28,4.80
2018,10,06,01,29,4.80
2018,10,06,01,30,4.80
2018,10,06,01,31,4.80
2018,10,06,01,32,4.80
2018,10,06,01,33,4.80
2018,10,06,01,34,4.80
2018,10,06,01,35,4.70
2018,10,06,01,36,4.70
2018,10,06,01,37,4.70
2018,10,06,01,38,4.70
2018,10,06,01,39,4.70
2018,10,06,01,40,4.70
2018,10,06,01,41,4.70
2018,10,06,01,42,4.70
2018,10,06,01,43,4.70
2018,10,06,01,44,4.70
2018,10,06,01,45,4.70
2018,10,06,01,46,4.70
2018,10,06,01,47,4.70
2018,10,06,01,48,4.70
2018,10,06,01,49,4.70
2018,10,06,01,50,4.70
2018,10,06,01,51,4.60
2018,10,06,01,52,4.60
2018,10,06,01,53,4.60
2018,10,06,01,54,4.60
2018,10,06,01,55,4.60
2018,10,06,01,56,4.60
2018,10,06,01,57,4.60
2018,10,06,01,58,4.60
2018,10,06,01,59,4.60
2018,10,06,02,00,4.60
2018,10,06,02,01,4.60
2018,10,06,02,02,4.50
2018,10,06,02,03,4.50
2018,10,06,02,04,4.50
2018,10,06,02,05,4.40
2018,10,06,02,06,4.40
2018,10,06,02,07,4.40
2018,10,06,02,08,4.40
2018,10,06,02,09,4.40
2018,10,06,02,10,4.30
2018,10,06,02,11,4.30
2018,10,06,02,12,4.30
2018,10,06,02,13,4.30
2018,10,06,02,14,4.30
2018,10,06,02,15,4.30
2018,10,06,02,16,4.30
2018,10,06,02,17,4.30
2018,10,06,02,18,4.20
2018,10,06,02,19,4.20
2018,10,06,02,20,4.20
2018,10,06,02,21,4.20
2018,10,06,02,22,4.30
2018,10,06,02,23,4.30
2018,10,06,02,24,4.30
2018,10,06,02,25,4.30
2018,10,06,02,26,4.30
2018,10,06,02,27,4.30
2018,10,06,02,28,4.20
2018,10,06,02,29,4.20
2018,10,06,02,30,4.20
2018,10,06,02,31,4.20
2018,10,06,02,32,4.20
2018,10,06,02,33,4.20
2018,10,06,02,34,4.10
2018,10,06,02,35,4.10
2018,10,06,02,36,4.10
2018,10,06,02,37,4.20
2018,10,06,02,38,4.20
2018,10,06,02,39,4.30
2018,10,06,02,40,4.30
2018,10,06,02,41,4.30
2018,10,06,02,42,4.20
2018,10,06,02,43,4.20
2018,10,06,02,44,4.10
2018,10,06,02,45,4.10
2018,10,06,02,46,4.00
2018,10,06,02,47,4.10
2018,10,06,02,48,4.10
2018,10,06,02,49,4.10
2018,10,06,02,50,4.20
2018,10,06,02,51,4.20
2018,10,06,02,52,4.20
2018,10,06,02,53,4.20
2018,10,06,02,54,4.10
2018,10,06,02,55,4.10
2018,10,06,02,56,4.00
2018,10,06,02,57,4.00
2018,10,06,02,58,3.90
2018,10,06,02,59,3.90
2018,10,06,03,00,3.90
2018,10,06,03,01,3.90
2018,10,06,03,02,3.90
2018,10,06,03,03,3.90
2018,10,06,03,04,4.00
2018,10,06,03,05,4.00
2018,10,06,03,06,4.00
2018,10,06,03,07,4.00
2018,10,06,03,08,4.00
2018,10,06,03,09,4.00
2018,10,06,03,10,4.00
2018,10,06,03,11,4.00
2018,10,06,03,12,4.00
2018,10,06,03,13,4.00
2018,10,06,03,14,4.00
2018,10,06,03,15,4.00
2018,10,06,03,16,3.90
2018,10,06,03,17,3.90
2018,10,06,03,18,3.90
2018,10,06,03,19,3.90
2018,10,06,03,20,3.90
2018,10,06,03,21,3.90
2018,10,06,03,22,3.90
2018,10,06,03,23,3.90
2018,10,06,03,24,4.00
2018,10,06,03,25,4.00
2018,10,06,03,26,4.00
2018,10,06,03,27,4.00
2018,10,06,03,28,3.90
2018,10,06,03,29,3.90
2018,10,06,03,30,3.90
2018,10,06,03,31,3.80
2018,10,06,03,32,3.80
2018,10,06,03,33,3.80
2018,10,06,03,34,3.80
2018,10,06,03,35,3.80
2018,10,06,03,36,3.80
2018,10,06,03,37,3.80
2018,10,06,03,38,3.80
2018,10,06,03,39,3.80
2018,10,06,03,40,3.80
2018,10,06,03,41,3.80
2018,10,06,03,42,3.80
2018,10,06,03,43,3.70
2018,10,06,03,44,3.70
2018,10,06,03,45,3.70
2018,10,06,03,46,3.70
2018,10,06,03,47,3.70
2018,10,06,03,48,3.70
2018,10,06,03,49,3.80
2018,10,06,03,50,3.70
2018,10,06,03,51,3.80
2018,10,06,03,52,3.80
2018,10,06,03,53,3.80
2018,10,06,03,54,3.70
2018,10,06,03,55,3.70
2018,10,06,03,56,3.70
2018,10,06,03,57,3.70
2018,10,06,03,58,3.70
2018,10,06,03,59,3.70
2018,10,06,04,00,3.70
2018,10,06,04,01,3.60
2018,10,06,04,02,3.60
2018,10,06,04,03,3.60
2018,10,06,04,04,3.60
2018,10,06,04,05,3.60
2018,10,06,04,06,3.60
2018,10,06,04,07,3.60
2018,10,06,04,08,3.60
2018,10,06,04,09,3.60
2018,10,06,04,10,3.60
2018,10,06,04,11,3.50
2018,10,06,04,12,3.50
2018,10,06,04,13,3.50
2018,10,06,04,14,3.50
2018,10,06,04,15,3.50
2018,10,06,04,16,3.50
2018,10,06,04,17,3.50
2018,10,06,04,18,3.50
2018,10,06,04,19,3.50
2018,10,06,04,20,3.50
2018,10,06,04,21,3.50
2018,10,06,04,22,3.40
2018,10,06,04,23,3.40
2018,10,06,04,24,3.40
2018,10,06,04,25,3.40
2018,10,06,04,26,3.40
2018,10,06,04,27,3.50
2018,10,06,04,28,3.50
2018,10,06,04,29,3.50
2018,10,06,04,30,3.50
2018,10,06,04,31,3.60
2018,10,06,04,32,3.60
2018,10,06,04,33,3.60
2018,10,06,04,34,3.60
2018,10,06,04,35,3.60
2018,10,06,04,36,3.50
2018,10,06,04,37,3.50
2018,10,06,04,38,3.50
2018,10,06,04,39,3.50
2018,10,06,04,40,3.50
2018,10,06,04,41,3.50
2018,10,06,04,42,3.50
2018,10,06,04,43,3.50
2018,10,06,04,44,3.50
2018,10,06,04,45,3.50
2018,10,06,04,46,3.50
2018,10,06,04,47,3.50
2018,10,06,04,48,3.50
2018,10,06,04,49,3.50
2018,10,06,04,50,3.50
2018,10,06,04,51,3.60
2018,10,06,04,52,3.60
2018,10,06,04,53,3.60
2018,10,06,04,54,3.60
2018,10,06,04,55,3.70
2018,10,06,04,56,3.70
2018,10,06,04,57,3.70
2018,10,06,04,58,3.70
2018,10,06,04,59,3.70
2018,10,06,05,00,3.70
2018,10,06,05,01,3.60
2018,10,06,05,02,3.60
2018,10,06,05,03,3.50
2018,10,06,05,04,3.50
2018,10,06,05,05,3.50
2018,10,06,05,06,3.50
2018,10,06,05,07,3.40
2018,10,06,05,08,3.40
2018,10,06,05,09,3.40
2018,10,06,05,10,3.40
2018,10,06,05,11,3.40
2018,10,06,05,12,3.40
2018,10,06,05,13,3.40
2018,10,06,05,14,3.40
2018,10,06,05,15,3.40
2018,10,06,05,16,3.50
2018,10,06,05,17,3.50
2018,10,06,05,18,3.50
2018,10,06,05,19,3.50
2018,10,06,05,20,3.50
2018,10,06,05,21,3.50
2018,10,06,05,22,3.50
2018,10,06,05,23,3.40
2018,10,06,05,24,3.40
2018,10,06,05,25,3.30
2018,10,06,05,26,3.30
2018,10,06,05,27,3.30
2018,10,06,05,28,3.30
2018,10,06,05,29,3.30
2018,10,06,05,30,3.30
2018,10,06,05,31,3.30
2018,10,06,05,32,3.40
2018,10,06,05,33,3.40
2018,10,06,05,34,3.40
2018,10,06,05,35,3.40
2018,10,06,05,36,3.40
2018,10,06,05,37,3.50
2018,10,06,05,38,3.50
2018,10,06,05,39,3.50
2018,10,06,05,40,3.50
2018,10,06,05,41,3.50
2018,10,06,05,42,3.40
2018,10,06,05,43,3.40
2018,10,06,05,44,3.40
2018,10,06,05,45,3.40
2018,10,06,05,46,3.30
2018,10,06,05,47,3.20
2018,10,06,05,48,3.20
2018,10,06,05,49,3.20
2018,10,06,05,50,3.20
2018,10,06,05,51,3.10
2018,10,06,05,52,3.10
2018,10,06,05,53,3.10
2018,10,06,05,54,3.10
2018,10,06,05,55,3.10
2018,10,06,05,56,3.10
2018,10,06,05,57,3.10
2018,10,06,05,58,3.10
2018,10,06,05,59,3.10
2018,10,06,06,00,3.10
2018,10,06,06,01,3.10
2018,10,06,06,02,3.20
2018,10,06,06,03,3.20
2018,10,06,06,04,3.20
2018,10,06,06,05,3.30
2018,10,06,06,06,3.30
2018,10,06,06,07,3.30
2018,10,06,06,08,3.30
2018,10,06,06,09,3.40
2018,10,06,06,10,3.40
2018,10,06,06,11,3.40
2018,10,06,06,12,3.40
2018,10,06,06,13,3.40
2018,10,06,06,14,3.40
2018,10,06,06,15,3.40
2018,10,06,06,16,3.40
2018,10,06,06,17,3.40
2018,10,06,06,18,3.40
2018,10,06,06,19,3.40
2018,10,06,06,20,3.40
2018,10,06,06,21,3.40
2018,10,06,06,22,3.40
2018,10,06,06,23,3.40
2018,10,06,06,24,3.40
2018,10,06,06,25,3.30
2018,10,06,06,26,3.30
2018,10,06,06,27,3.30
2018,10,06,06,28,3.30
2018,10,06,06,29,3.30
2018,10,06,06,30,3.30
2018,10,06,06,31,3.30
2018,10,06,06,32,3.30
2018,10,06,06,33,3.30
2018,10,06,06,34,3.30
2018,10,06,06,35,3.30
2018,10,06,06,36,3.30
2018,10,06,06,37,3.30
2018,10,06,06,38,3.30
2018,10,06,06,39,3.20
2018,10,06,06,40,3.20
2018,10,06,06,41,3.20
2018,10,06,06,42,3.20
2018,10,06,06,43,3.10
2018,10,06,06,44,3.10
2018,10,06,06,45,3.10
2018,10,06,06,46,3.00
2018,10,06,06,47,3.00
2018,10,06,06,48,2.90
2018,10,06,06,49,2.90
2018,10,06,06,50,2.90
2018,10,06,06,51,2.90
2018,10,06,06,52,2.90
2018,10,06,06,53,2.90
2018,10,06,06,54,2.90
2018,10,06,06,55,2.90
2018,10,06,06,56,2.90
2018,10,06,06,57,2.90
2018,10,06,06,58,2.90
2018,10,06,06,59,2.90
2018,10,06,07,00,2.90
2018,10,06,07,01,2.90
2018,10,06,07,02,2.90
2018,10,06,07,03,2.90
2018,10,06,07,04,3.00
2018,10,06,07,05,3.00
2018,10,06,07,06,3.00
2018,10,06,07,07,2.90
2018,10,06,07,08,2.90
2018,10,06,07,09,2.90
2018,10,06,07,10,2.90
2018,10,06,07,11,2.90
2018,10,06,07,12,2.80
2018,10,06,07,13,2.80
2018,10,06,07,14,2.90
2018,10,06,07,15,2.90
2018,10,06,07,16,2.90
2018,10,06,07,17,3.00
2018,10,06,07,18,3.00
2018,10,06,07,19,3.00
2018,10,06,07,20,3.00
2018,10,06,07,21,3.10
2018,10,06,07,22,3.10
2018,10,06,07,23,3.10
2018,10,06,07,24,3.10
2018,10,06,07,25,3.00
2018,10,06,07,26,3.00
2018,10,06,07,27,3.00
2018,10,06,07,28,3.00
2018,10,06,07,29,3.00
2018,10,06,07,30,3.00
2018,10,06,07,31,3.00
2018,10,06,07,32,3.00
2018,10,06,07,33,3.00
2018,10,06,07,34,3.00
2018,10,06,07,35,3.00
2018,10,06,07,36,3.00
2018,10,06,07,37,3.00
2018,10,06,07,38,3.00
2018,10,06,07,39,3.00
2018,10,06,07,40,3.00
2018,10,06,07,41,3.00
2018,10,06,07,42,3.00
2018,10,06,07,43,3.00
2018,10,06,07,44,2.90
2018,10,06,07,45,2.90
2018,10,06,07,46,2.90
2018,10,06,07,47,2.90
2018,10,06,07,48,2.90
2018,10,06,07,49,2.80
2018,10,06,07,50,2.80
2018,10,06,07,51,2.80
2018,10,06,07,52,2.90
2018,10,06,07,53,2.90
2018,10,06,07,54,2.90
2018,10,06,07,55,3.00
2018,10,06,07,56,3.00
2018,10,06,07,57,3.00
2018,10,06,07,58,3.10
2018,10,06,07,59,3.10
2018,10,06,08,00,3.10
2018,10,06,08,01,3.10
2018,10,06,08,02,3.20
2018,10,06,08,03,3.20
2018,10,06,08,04,3.20
2018,10,06,08,05,3.20
2018,10,06,08,06,3.20
2018,10,06,08,07,3.20
2018,10,06,08,08,3.20
2018,10,06,08,09,3.30
2018,10,06,08,10,3.30
2018,10,06,08,11,3.30
2018,10,06,08,12,3.30
2018,10,06,08,13,3.40
2018,10,06,08,14,3.40
2018,10,06,08,15,3.40
2018,10,06,08,16,3.40
2018,10,06,08,17,3.50
2018,10,06,08,18,3.50
2018,10,06,08,19,3.50
2018,10,06,08,20,3.50
2018,10,06,08,21,3.60
2018,10,06,08,22,3.60
2018,10,06,08,23,3.60
2018,10,06,08,24,3.70
2018,10,06,08,25,3.70
2018,10,06,08,26,3.70
2018,10,06,08,27,3.80
2018,10,06,08,28,3.80
2018,10,06,08,29,3.80
2018,10,06,08,30,3.80
2018,10,06,08,31,3.90
2018,10,06,08,32,4.00
2018,10,06,08,33,4.00
2018,10,06,08,34,4.10
2018,10,06,08,35,4.10
2018,10,06,08,36,4.10
2018,10,06,08,37,4.10
2018,10,06,08,38,4.20
2018,10,06,08,39,4.20
2018,10,06,08,40,4.20
2018,10,06,08,41,4.20
2018,10,06,08,42,4.30
2018,10,06,08,43,4.30
2018,10,06,08,44,4.30
2018,10,06,08,45,4.40
2018,10,06,08,46,4.40
2018,10,06,08,47,4.50
2018,10,06,08,48,4.50
2018,10,06,08,49,4.50
2018,10,06,08,50,4.60
2018,10,06,08,51,4.70
2018,10,06,08,52,4.80
2018,10,06,08,53,4.90
2018,10,06,08,54,5.00
2018,10,06,08,55,5.10
2018,10,06,08,56,5.10
2018,10,06,08,57,5.20
2018,10,06,08,58,5.20
2018,10,06,08,59,5.30
2018,10,06,09,00,5.30
2018,10,06,09,01,5.40
2018,10,06,09,02,5.50
2018,10,06,09,03,5.60
2018,10,06,09,04,5.70
2018,10,06,09,05,5.90
2018,10,06,09,06,6.00
2018,10,06,09,07,6.10
2018,10,06,09,08,6.20
2018,10,06,09,09,6.30
2018,10,06,09,10,6.30
2018,10,06,09,11,6.30
2018,10,06,09,12,6.40
2018,10,06,09,13,6.40
2018,10,06,09,14,6.50
2018,10,06,09,15,6.60
2018,10,06,09,16,6.60
2018,10,06,09,17,6.70
2018,10,06,09,18,6.80
2018,10,06,09,19,6.90
2018,10,06,09,20,7.00
2018,10,06,09,21,7.00
2018,10,06,09,22,7.20
2018,10,06,09,23,7.30
2018,10,06,09,24,7.40
2018,10,06,09,25,7.50
2018,10,06,09,26,7.60
2018,10,06,09,27,7.70
2018,10,06,09,28,7.80
2018,10,06,09,29,7.90
2018,10,06,09,30,7.90
2018,10,06,09,31,7.90
2018,10,06,09,32,7.90
2018,10,06,09,33,7.90
2018,10,06,09,34,8.00
2018,10,06,09,35,8.00
2018,10,06,09,36,8.10
2018,10,06,09,37,8.20
2018,10,06,09,38,8.30
2018,10,06,09,39,8.30
2018,10,06,09,40,8.40
2018,10,06,09,41,8.40
2018,10,06,09,42,8.40
2018,10,06,09,43,8.40
2018,10,06,09,44,8.40
2018,10,06,09,45,8.50
2018,10,06,09,46,8.50
2018,10,06,09,47,8.60
2018,10,06,09,48,8.60
2018,10,06,09,49,8.60
2018,10,06,09,50,8.70
2018,10,06,09,51,8.80
2018,10,06,09,52,8.90
2018,10,06,09,53,9.00
2018,10,06,09,54,9.10
2018,10,06,09,55,9.20
2018,10,06,09,56,9.30
2018,10,06,09,57,9.40
2018,10,06,09,58,9.40
2018,10,06,09,59,9.50
2018,10,06,10,00,9.60
2018,10,06,10,01,9.70
2018,10,06,10,02,9.80
2018,10,06,10,03,9.80
2018,10,06,10,04,9.80
2018,10,06,10,05,9.80
2018,10,06,10,06,9.80
2018,10,06,10,07,9.90
2018,10,06,10,08,10.00
2018,10,06,10,09,10.00
2018,10,06,10,10,10.10
2018,10,06,10,11,10.10
2018,10,06,10,12,10.20
2018,10,06,10,13,10.20
2018,10,06,10,14,10.20
2018,10,06,10,15,10.30
2018,10,06,10,16,10.30
2018,10,06,10,17,10.30
2018,10,06,10,18,10.30
2018,10,06,10,19,10.20
2018,10,06,10,20,10.20
2018,10,06,10,21,10.20
2018,10,06,10,22,10.20
2018,10,06,10,23,10.10
2018,10,06,10,24,10.10
2018,10,06,10,25,10.10
2018,10,06,10,26,10.10
2018,10,06,10,27,10.10
2018,10,06,10,28,10.20
2018,10,06,10,29,10.10
2018,10,06,10,30,10.10
2018,10,06,10,31,10.10
2018,10,06,10,32,10.10
2018,10,06,10,33,10.10
2018,10,06,10,34,10.10
2018,10,06,10,35,10.10
2018,10,06,10,36,10.10
2018,10,06,10,37,10.10
2018,10,06,10,38,10.10
2018,10,06,10,39,10.20
2018,10,06,10,40,10.30
2018,10,06,10,41,10.30
2018,10,06,10,42,10.30
2018,10,06,10,43,10.40
2018,10,06,10,44,10.40
2018,10,06,10,45,10.40
2018,10,06,10,46,10.50
2018,10,06,10,47,10.50
2018,10,06,10,48,10.50
2018,10,06,10,49,10.60
2018,10,06,10,50,10.60
2018,10,06,10,51,10.60
2018,10,06,10,52,10.60
2018,10,06,10,53,10.70
2018,10,06,10,54,10.70
2018,10,06,10,55,10.80
2018,10,06,10,56,10.90
2018,10,06,10,57,10.90
2018,10,06,10,58,11.00
2018,10,06,10,59,11.10
2018,10,06,11,00,11.10
2018,10,06,11,01,11.10
2018,10,06,11,02,11.20
2018,10,06,11,03,11.30
2018,10,06,11,04,11.40
2018,10,06,11,05,11.50
2018,10,06,11,06,11.60
2018,10,06,11,07,11.60
2018,10,06,11,08,11.60
2018,10,06,11,09,11.60
2018,10,06,11,10,11.60
2018,10,06,11,11,11.70
2018,10,06,11,12,11.70
2018,10,06,11,13,11.70
2018,10,06,11,14,11.80
2018,10,06,11,15,11.80
2018,10,06,11,16,11.80
2018,10,06,11,17,11.80
2018,10,06,11,18,11.90
2018,10,06,11,19,12.00
2018,10,06,11,20,12.00
2018,10,06,11,21,12.00
2018,10,06,11,22,12.10
2018,10,06,11,23,12.10
2018,10,06,11,24,12.20
2018,10,06,11,25,12.20
2018,10,06,11,26,12.20
2018,10,06,11,27,12.20
2018,10,06,11,28,12.20
2018,10,06,11,29,12.20
2018,10,06,11,30,12.20
2018,10,06,11,31,12.20
2018,10,06,11,32,12.20
2018,10,06,11,33,12.30
2018,10,06,11,34,12.20
2018,10,06,11,35,12.00
2018,10,06,11,36,11.90
2018,10,06,11,37,11.80
2018,10,06,11,38,11.70
2018,10,06,11,39,11.70
2018,10,06,11,40,11.60
2018,10,06,11,41,11.60
2018,10,06,11,42,11.50
2018,10,06,11,43,11.50
2018,10,06,11,44,11.60
2018,10,06,11,45,11.60
2018,10,06,11,46,11.70
2018,10,06,11,47,11.80
2018,10,06,11,48,11.90
2018,10,06,11,49,12.00
2018,10,06,11,50,12.00
2018,10,06,11,51,12.10
2018,10,06,11,52,12.10
2018,10,06,11,53,12.20
2018,10,06,11,54,12.20
2018,10,06,11,55,12.20
2018,10,06,11,56,12.20
2018,10,06,11,57,12.20
2018,10,06,11,58,12.20
2018,10,06,11,59,12.20
2018,10,06,12,00,12.20
2018,10,06,12,01,12.20
2018,10,06,12,02,12.20
2018,10,06,12,03,12.20
2018,10,06,12,04,12.30
2018,10,06,12,05,12.30
2018,10,06,12,06,12.40
2018,10,06,12,07,12.40
2018,10,06,12,08,12.40
2018,10,06,12,09,12.40
2018,10,06,12,10,12.40
2018,10,06,12,11,12.40
2018,10,06,12,12,12.50
2018,10,06,12,13,12.50
2018,10,06,12,14,12.50
2018,10,06,12,15,12.50
2018,10,06,12,16,12.50
2018,10,06,12,17,12.60
2018,10,06,12,18,12.60
2018,10,06,12,19,12.70
2018,10,06,12,20,12.80
2018,10,06,12,21,12.80
2018,10,06,12,22,12.90
2018,10,06,12,23,13.00
2018,10,06,12,24,13.00
2018,10,06,12,25,13.10
2018,10,06,12,26,13.10
2018,10,06,12,27,13.20
2018,10,06,12,28,13.20
2018,10,06,12,29,13.30
2018,10,06,12,30,13.40
2018,10,06,12,31,13.40
2018,10,06,12,32,13.40
2018,10,06,12,33,13.40
2018,10,06,12,34,13.40
2018,10,06,12,35,13.40
2018,10,06,12,36,13.40
2018,10,06,12,37,13.40
2018,10,06,12,38,13.40
2018,10,06,12,39,13.40
2018,10,06,12,40,13.40
2018,10,06,12,41,13.30
2018,10,06,12,42,13.30
2018,10,06,12,43,13.30
2018,10,06,12,44,13.30
2018,10,06,12,45,13.30
2018,10,06,12,46,13.30
2018,10,06,12,47,13.30
2018,10,06,12,48,13.30
2018,10,06,12,49,13.30
2018,10,06,12,50,13.20
2018,10,06,12,51,13.20
2018,10,06,12,52,13.20
2018,10,06,12,53,13.10
2018,10,06,12,54,13.10
2018,10,06,12,55,13.10
2018,10,06,12,56,13.10
2018,10,06,12,57,13.10
2018,10,06,12,58,13.10
2018,10,06,12,59,13.10
2018,10,06,13,00,13.10
2018,10,06,13,01,13.10
2018,10,06,13,02,13.10
2018,10,06,13,03,13.10
2018,10,06,13,04,13.20
2018,10,06,13,05,13.20
2018,10,06,13,06,13.20
2018,10,06,13,07,13.30
2018,10,06,13,08,13.30
2018,10,06,13,09,13.30
2018,10,06,13,10,13.30
2018,10,06,13,11,13.20
2018,10,06,13,12,13.10
2018,10,06,13,13,13.10
2018,10,06,13,14,13.00
2018,10,06,13,15,12.90
2018,10,06,13,16,12.90
2018,10,06,13,17,12.90
2018,10,06,13,18,12.90
2018,10,06,13,19,12.90
2018,10,06,13,20,12.90
2018,10,06,13,21,12.80
2018,10,06,13,22,12.80
2018,10,06,13,23,12.80
2018,10,06,13,24,12.80
2018,10,06,13,25,12.80
2018,10,06,13,26,12.80
2018,10,06,13,27,12.80
2018,10,06,13,28,12.90
2018,10,06,13,29,12.90
2018,10,06,13,30,12.90
2018,10,06,13,31,12.90
2018,10,06,13,32,13.00
2018,10,06,13,33,13.00
2018,10,06,13,34,13.00
2018,10,06,13,35,13.00
2018,10,06,13,36,13.10
2018,10,06,13,37,13.10
2018,10,06,13,38,13.20
2018,10,06,13,39,13.20
2018,10,06,13,40,13.20
2018,10,06,13,41,13.20
2018,10,06,13,42,13.30
2018,10,06,13,43,13.30
2018,10,06,13,44,13.30
2018,10,06,13,45,13.30
2018,10,06,13,46,13.30
2018,10,06,13,47,13.30
2018,10,06,13,48,13.40
2018,10,06,13,49,13.40
2018,10,06,13,50,13.30
2018,10,06,13,51,13.30
2018,10,06,13,52,13.30
2018,10,06,13,53,13.30
2018,10,06,13,54,13.30
2018,10,06,13,55,13.20
2018,10,06,13,56,13.20
2018,10,06,13,57,13.10
2018,10,06,13,58,13.10
2018,10,06,13,59,13.10
2018,10,06,14,00,13.10
2018,10,06,14,01,13.10
2018,10,06,14,02,13.20
2018,10,06,14,03,13.20
2018,10,06,14,04,13.20
2018,10,06,14,05,13.10
2018,10,06,14,06,13.10
2018,10,06,14,07,13.20
2018,10,06,14,08,13.20
2018,10,06,14,09,13.20
2018,10,06,14,10,13.20
2018,10,06,14,11,13.30
2018,10,06,14,12,13.30
2018,10,06,14,13,13.20
2018,10,06,14,14,13.20
2018,10,06,14,15,13.20
2018,10,06,14,16,13.20
2018,10,06,14,17,13.20
2018,10,06,14,18,13.20
2018,10,06,14,19,13.20
2018,10,06,14,20,13.20
2018,10,06,14,21,13.20
2018,10,06,14,22,13.20
2018,10,06,14,23,13.20
2018,10,06,14,24,13.30
2018,10,06,14,25,13.30
2018,10,06,14,26,13.30
2018,10,06,14,27,13.30
2018,10,06,14,28,13.30
2018,10,06,14,29,13.40
2018,10,06,14,30,13.40
2018,10,06,14,31,13.40
2018,10,06,14,32,13.50
2018,10,06,14,33,13.50
2018,10,06,14,34,13.60
2018,10,06,14,35,13.60
2018,10,06,14,36,13.70
2018,10,06,14,37,13.70
2018,10,06,14,38,13.70
2018,10,06,14,39,13.70
2018,10,06,14,40,13.70
2018,10,06,14,41,13.70
2018,10,06,14,42,13.70
2018,10,06,14,43,13.80
2018,10,06,14,44,13.80
2018,10,06,14,45,13.80
2018,10,06,14,46,13.80
2018,10,06,14,47,13.80
2018,10,06,14,48,13.80
2018,10,06,14,49,13.80
2018,10,06,14,50,13.80
2018,10,06,14,51,13.80
2018,10,06,14,52,13.80
2018,10,06,14,53,13.80
2018,10,06,14,54,13.80
2018,10,06,14,55,13.80
2018,10,06,14,56,13.80
2018,10,06,14,57,13.80
2018,10,06,14,58,13.80
2018,10,06,14,59,13.70
2018,10,06,15,00,13.70
2018,10,06,15,01,13.70
2018,10,06,15,02,13.70
2018,10,06,15,03,13.70
2018,10,06,15,04,13.70
2018,10,06,15,05,13.70
2018,10,06,15,06,13.60
2018,10,06,15,07,13.60
2018,10,06,15,08,13.50
2018,10,06,15,09,13.40
2018,10,06,15,10,13.40
2018,10,06,15,11,13.40
2018,10,06,15,12,13.30
2018,10,06,15,13,13.30
2018,10,06,15,14,13.30
2018,10,06,15,15,13.30
2018,10,06,15,16,13.20
2018,10,06,15,17,13.20
2018,10,06,15,18,13.20
2018,10,06,15,19,13.20
2018,10,06,15,20,13.20
2018,10,06,15,21,13.20
2018,10,06,15,22,13.10
2018,10,06,15,23,13.10
2018,10,06,15,24,13.10
2018,10,06,15,25,13.10
2018,10,06,15,26,13.10
2018,10,06,15,27,13.10
2018,10,06,15,28,13.10
2018,10,06,15,29,13.10
2018,10,06,15,30,13.10
2018,10,06,15,31,13.10
2018,10,06,15,32,13.10
2018,10,06,15,33,13.10
2018,10,06,15,34,13.00
2018,10,06,15,35,13.00
2018,10,06,15,36,12.90
2018,10,06,15,37,12.90
2018,10,06,15,38,12.80
2018,10,06,15,39,12.80
2018,10,06,15,40,12.80
2018,10,06,15,41,12.80
2018,10,06,15,42,12.80
2018,10,06,15,43,12.80
2018,10,06,15,44,12.80
2018,10,06,15,45,12.80
2018,10,06,15,46,12.80
2018,10,06,15,47,12.80
2018,10,06,15,48,12.80
2018,10,06,15,49,12.80
2018,10,06,15,50,12.80
2018,10,06,15,51,12.80
2018,10,06,15,52,12.80
2018,10,06,15,53,12.80
2018,10,06,15,54,12.80
2018,10,06,15,55,12.80
2018,10,06,15,56,12.80
2018,10,06,15,57,12.80
2018,10,06,15,58,12.80
2018,10,06,15,59,12.80
2018,10,06,16,00,12.80
2018,10,06,16,01,12.80
2018,10,06,16,02,12.80
2018,10,06,16,03,12.80
2018,10,06,16,04,12.80
2018,10,06,16,05,12.80
2018,10,06,16,06,12.80
2018,10,06,16,07,12.80
2018,10,06,16,08,12.80
2018,10,06,16,09,12.70
2018,10,06,16,10,12.70
2018,10,06,16,11,12.60
2018,10,06,16,12,12.60
2018,10,06,16,13,12.60
2018,10,06,16,14,12.60
2018,10,06,16,15,12.60
2018,10,06,16,16,12.50
2018,10,06,16,17,12.50
2018,10,06,16,18,12.50
2018,10,06,16,19,12.50
2018,10,06,16,20,12.50
2018,10,06,16,21,12.50
2018,10,06,16,22,12.40
2018,10,06,16,23,12.40
2018,10,06,16,24,12.40
2018,10,06,16,25,12.40
2018,10,06,16,26,12.30
2018,10,06,16,27,12.30
2018,10,06,16,28,12.30
2018,10,06,16,29,12.30
2018,10,06,16,30,12.30
2018,10,06,16,31,12.30
2018,10,06,16,32,12.30
2018,10,06,16,33,12.30
2018,10,06,16,34,12.30
2018,10,06,16,35,12.30
2018,10,06,16,36,12.30
2018,10,06,16,37,12.30
2018,10,06,16,38,12.30
2018,10,06,16,39,12.30
2018,10,06,16,40,12.30
2018,10,06,16,41,12.30
2018,10,06,16,42,12.30
2018,10,06,16,43,12.20
2018,10,06,16,44,12.20
2018,10,06,16,45,12.20
2018,10,06,16,46,12.20
2018,10,06,16,47,12.20
2018,10,06,16,48,12.20
2018,10,06,16,49,12.20
2018,10,06,16,50,12.20
2018,10,06,16,51,12.20
2018,10,06,16,52,12.20
2018,10,06,16,53,12.20
2018,10,06,16,54,12.20
2018,10,06,16,55,12.10
2018,10,06,16,56,12.10
2018,10,06,16,57,12.10
2018,10,06,16,58,12.10
2018,10,06,16,59,12.00
2018,10,06,17,00,12.00
2018,10,06,17,01,12.00
2018,10,06,17,02,12.00
2018,10,06,17,03,12.00
2018,10,06,17,04,12.00
2018,10,06,17,05,12.00
2018,10,06,17,06,12.00
2018,10,06,17,07,11.90
2018,10,06,17,08,11.90
2018,10,06,17,09,11.90
2018,10,06,17,10,11.90
2018,10,06,17,11,11.90
2018,10,06,17,12,11.80
2018,10,06,17,13,11.80
2018,10,06,17,14,11.80
2018,10,06,17,15,11.80
2018,10,06,17,16,11.70
2018,10,06,17,17,11.70
2018,10,06,17,18,11.70
2018,10,06,17,19,11.70
2018,10,06,17,20,11.70
2018,10,06,17,21,11.70
2018,10,06,17,22,11.70
2018,10,06,17,23,11.70
2018,10,06,17,24,11.70
2018,10,06,17,25,11.70
2018,10,06,17,26,11.70
2018,10,06,17,27,11.70
2018,10,06,17,28,11.70
2018,10,06,17,29,11.70
2018,10,06,17,30,11.70
2018,10,06,17,31,11.70
2018,10,06,17,32,11.70
2018,10,06,17,33,11.70
2018,10,06,17,34,11.70
2018,10,06,17,35,11.70
2018,10,06,17,36,11.60
2018,10,06,17,37,11.60
2018,10,06,17,38,11.60
2018,10,06,17,39,11.60
2018,10,06,17,40,11.60
2018,10,06,17,41,11.50
2018,10,06,17,42,11.50
2018,10,06,17,43,11.50
2018,10,06,17,44,11.50
2018,10,06,17,45,11.40